GFSFLT1_925_rhum_024.txt.gz
RH
98 97 81 83 82 73 76 80 79 90 81 58 56 53 49 48 46 47 42 49 45 44 42 42 41 40 41 43 43 44 55 69
94 99 96 93 86 79 75 68 88 61 54 50 46 45 46 51 48 45 46 45 45 43 43 44 42 40 36 40 44 52 56 62
83 87 84 83 83 80 78 79 64 51 49 50 51 52 52 48 48 48 47 46 45 46 47 48 49 44 32 35 46 64 67 71
86 87 83 68 51 48 52 60 51 47 48 44 44 49 51 51 50 49 48 48 49 51 57 55 45 40 42 47 62 74 80 76
67 63 53 46 46 45 44 44 44 42 43 44 46 49 56 64 57 52 52 52 52 60 56 46 41 46 45 58 68 72 78 87
62 54 50 47 46 44 43 44 44 44 45 47 51 54 57 57 54 52 53 52 56 48 49 48 54 52 59 59 66 74 77 82
60 56 54 52 50 46 45 45 47 50 51 52 51 51 53 54 54 54 50 49 52 54 52 54 52 47 52 52 54 56 56 62
70 62 59 57 56 56 54 53 54 53 52 52 51 50 49 46 44 45 45 46 46 50 56 55 48 53 59 59 64 69 57 56
70 63 62 62 58 54 51 50 51 52 50 49 42 41 42 45 46 48 49 52 55 60 58 47 53 53 66 59 49 52 40 41
69 65 63 59 54 52 50 50 49 48 48 48 51 55 56 57 55 56 58 60 63 63 56 50 52 63 60 54 47 40 40 40
73 69 62 56 50 43 41 44 45 47 54 58 56 56 48 36 38 49 54 62 64 63 58 57 69 65 59 46 41 40 41 44
71 67 57 46 41 40 40 37 33 39 42 47 47 32 25 22 32 56 58 58 56 56 64 72 65 65 70 49 43 43 47 54
62 55 50 47 45 41 38 32 34 39 46 32 27 25 29 39 49 51 49 46 48 69 74 69 73 78 62 59 51 50 56 59
67 60 54 49 47 44 35 36 36 31 27 26 27 34 38 38 39 41 41 50 62 71 77 80 74 58 53 50 53 56 58 65
65 64 54 52 49 43 34 31 28 27 26 29 33 39 44 45 46 46 48 68 84 89 92 89 71 54 56 56 58 62 69 73
63 62 58 52 46 36 32 28 27 27 28 32 44 54 49 49 51 52 61 82 93 95 65 65 54 56 57 61 68 72 79 86
59 55 52 48 40 32 29 26 26 29 33 45 55 50 50 55 60 66 75 93 96 92 97 58 59 62 67 68 71 80 80 78
55 53 48 37 32 28 26 27 28 31 35 50 50 53 59 63 74 79 82 83 93 74 71 66 66 65 63 66 76 76 79 82
56 50 36 34 29 27 28 29 32 35 44 49 54 60 65 69 65 77 84 80 77 90 71 71 66 62 63 68 79 80 81 78

GFSFLT1_925_rhum_027.txt.gz
RH
97 99 93 90 94 90 83 84 76 80 75 81 66 62 56 50 50 55 51 50 46 44 43 43 44 47 49 55 58 54 61 66
98 100 99 100 99 87 77 81 72 78 85 62 57 50 50 54 55 47 48 46 46 45 49 53 50 46 38 47 57 59 48 68
96 98 98 93 96 97 85 79 73 71 62 54 49 51 59 52 48 48 48 48 48 53 47 47 43 47 42 36 55 59 62 77
86 91 91 93 91 86 86 78 54 55 52 53 56 56 55 54 52 51 50 50 51 56 42 44 41 44 57 62 72 77 61 69
79 81 70 63 57 61 71 78 55 56 58 54 55 59 63 67 59 52 52 51 50 53 45 44 48 51 47 58 66 70 70 58
60 52 54 56 51 51 52 52 52 50 51 52 53 55 55 54 53 52 52 45 45 46 49 50 53 52 38 39 63 68 68 66
53 56 57 54 48 47 48 52 53 53 53 52 52 53 52 46 43 45 46 46 47 47 51 55 58 48 45 56 60 73 74 73
53 53 54 60 61 55 55 54 53 53 51 49 40 39 42 44 51 58 58 61 58 57 59 60 59 51 50 71 78 76 77 63
56 57 59 63 64 59 53 54 54 51 48 43 41 43 47 52 55 56 54 59 60 61 62 61 54 49 60 84 78 76 80 66
57 61 65 65 63 58 54 50 46 46 43 44 50 54 55 50 36 35 47 55 62 65 65 62 59 76 78 68 75 71 60 55
60 62 66 64 62 51 43 42 39 42 49 54 54 48 29 24 24 30 47 50 48 50 49 76 78 76 69 66 69 62 51 59
60 62 62 56 47 46 44 39 40 46 46 48 33 26 24 26 30 33 34 37 44 51 69 81 80 71 71 82 74 60 58 63
59 59 54 50 50 46 39 35 36 39 38 27 25 25 27 31 34 38 43 46 49 62 67 77 84 86 82 82 64 64 64 68
54 54 52 51 51 48 38 37 36 31 27 25 25 28 34 42 44 47 58 69 80 90 90 93 96 98 67 55 54 57 68 71
53 52 50 51 51 45 36 33 29 27 26 26 32 42 50 49 51 61 66 73 91 96 93 83 82 72 62 60 59 75 82 82
52 52 52 52 52 45 35 30 28 27 28 32 41 51 53 52 55 59 71 84 95 84 83 72 67 64 68 79 85 81 78 72
49 51 54 52 50 42 32 29 27 28 31 34 47 56 55 54 58 72 82 92 90 92 86 77 74 79 69 64 64 76 72 68
50 52 50 48 42 32 31 27 28 30 34 37 53 56 54 56 69 74 76 92 80 80 85 77 80 84 63 59 59 76 71 69
49 50 49 40 33 30 28 28 31 34 37 49 52 54 58 65 76 71 74 88 87 89 84 79 79 68 61 61 61 74 74 73

GFSFLT1_925_rhum_030.txt.gz
RH
62 53 47 54 64 77 83 86 74 71 70 72 79 74 70 62 64 65 52 59 63 57 59 64 57 52 48 50 48 43 40 39
71 75 69 67 76 80 82 94 80 77 64 87 73 71 69 59 60 63 62 60 59 58 54 54 51 51 53 52 46 41 39 44
73 76 72 75 76 78 83 88 84 79 73 64 58 58 61 57 58 63 60 59 58 59 57 52 50 44 51 51 51 46 38 40
63 69 73 75 76 81 77 74 72 65 58 63 64 66 60 53 55 54 58 61 57 60 56 50 49 47 43 54 53 49 47 43
61 66 70 68 69 70 66 64 57 60 64 55 54 45 45 54 56 56 55 58 57 52 51 54 55 53 56 51 47 56 50 47
52 53 54 53 62 66 65 60 53 58 57 53 55 55 56 55 54 54 55 55 57 54 56 58 60 58 55 59 57 58 52 50
41 40 42 44 49 56 60 52 53 56 58 61 59 58 52 46 45 41 36 39 43 49 61 65 65 62 63 61 60 58 58 55
36 38 38 43 51 55 55 52 55 58 58 53 50 47 44 38 40 40 45 42 43 43 54 63 64 61 67 64 59 61 58 55
36 36 39 46 50 52 51 50 50 51 49 47 46 44 42 43 48 52 43 40 43 52 60 58 56 58 58 59 61 62 64 61
38 40 44 48 50 54 51 46 43 46 48 45 47 51 54 49 42 41 43 48 45 42 49 50 51 53 56 63 61 63 63 61
39 43 50 50 51 55 49 41 42 48 47 51 49 48 41 38 40 41 41 40 40 40 40 42 49 54 57 66 63 58 65 62
42 45 51 51 49 44 42 40 42 43 44 48 45 37 37 38 38 39 42 45 44 44 49 53 54 54 59 61 66 65 58 57
42 48 49 45 41 39 40 38 38 42 41 38 36 34 36 37 39 42 46 49 50 54 60 61 58 60 66 75 68 57 60 57
44 46 43 40 38 38 37 40 41 38 32 30 30 34 37 38 42 48 52 52 54 61 60 67 70 72 73 62 61 67 63 59
44 42 41 40 38 39 38 43 39 34 29 27 30 37 41 46 51 53 54 57 62 62 63 69 70 64 65 62 61 61 62 59
43 41 39 38 39 40 39 38 36 32 29 31 33 41 51 53 56 56 56 63 64 63 66 76 77 70 62 69 65 61 58 56
42 40 38 36 37 39 40 36 32 31 32 34 35 46 53 53 55 56 57 59 62 63 69 67 69 65 79 64 61 59 57 52
41 38 37 36 38 41 36 31 32 34 34 35 42 52 52 51 52 53 54 58 64 65 69 71 69 72 69 59 57 58 56 52
40 38 38 38 37 34 30 29 31 34 34 38 47 51 50 50 53 56 57 58 60 63 65 68 69 69 63 60 58 62 62 61

GFSFLT1_925_rhum_033.txt.gz
RH
35 34 28 31 44 62 66 75 85 70 61 67 68 71 80 76 68 67 64 62 63 57 59 64 57 50 50 54 53 44 38 32
45 40 36 40 51 63 67 79 87 83 76 71 71 71 63 67 63 64 63 58 58 57 52 54 54 46 54 53 47 40 38 36
46 49 49 49 56 64 74 81 85 72 64 62 57 55 57 53 55 60 57 57 55 54 58 50 50 48 41 41 48 47 41 39
46 50 52 58 62 68 75 77 76 62 54 54 52 55 55 53 54 54 54 57 54 53 53 51 47 43 37 44 46 47 45 43
43 49 58 63 70 76 69 64 56 54 51 47 47 42 40 43 46 48 53 56 53 50 47 49 49 48 48 47 43 49 47 45
44 51 58 57 58 56 50 51 48 50 52 46 50 45 50 51 51 54 54 52 52 46 46 50 52 50 48 50 51 51 48 46
42 44 44 45 53 54 52 45 45 49 50 52 51 53 49 45 44 41 33 32 34 38 41 44 48 48 49 49 51 51 50 56
35 33 33 39 48 52 52 43 45 50 53 54 55 50 44 38 37 34 38 36 34 34 42 47 47 47 46 47 60 60 54 60
30 29 31 37 43 46 43 44 46 51 51 47 42 38 36 36 39 41 35 35 38 42 42 44 45 46 45 44 47 55 56 66
28 29 31 37 42 45 44 44 45 47 43 39 42 42 44 39 37 37 36 39 35 32 38 38 38 38 42 45 46 57 59 62
29 30 34 39 43 47 47 44 41 42 40 41 44 46 41 34 36 37 38 37 39 39 40 40 44 45 45 44 48 53 64 70
30 32 37 41 44 49 48 40 37 36 39 45 44 40 35 36 36 36 36 40 41 40 41 45 47 45 44 56 59 67 62 60
28 33 38 42 46 45 42 37 33 38 41 41 45 35 31 33 34 35 39 43 44 41 45 48 47 52 61 66 62 58 62 62
28 34 39 42 43 40 38 35 34 38 43 39 32 31 32 34 33 37 42 44 43 45 48 48 51 54 59 62 60 63 63 63
31 34 39 40 39 38 36 34 38 45 34 34 26 29 35 34 37 42 45 46 46 49 50 50 55 56 56 59 61 58 63 58
34 36 37 38 37 37 35 36 43 38 43 29 27 32 36 37 42 46 46 47 50 51 48 54 61 63 59 66 61 57 48 44
33 35 36 36 37 36 35 39 42 42 36 29 32 32 34 38 43 47 45 45 47 49 50 55 57 57 62 64 59 60 54 45
32 34 35 36 35 36 38 43 42 34 29 31 32 32 38 40 41 40 42 46 50 50 53 59 66 66 78 66 58 62 56 50
30 33 36 36 35 38 38 36 34 32 31 31 30 36 39 40 40 41 44 48 50 51 54 61 68 65 76 65 59 66 55 56

GFSFLT1_925_rhum_039.txt.gz
RH
36 40 44 49 50 56 65 76 74 70 66 61 61 68 78 74 71 70 68 57 58 59 56 54 53 52 51 49 52 50 49 47
34 34 47 48 52 60 69 74 76 66 61 74 85 82 75 71 65 57 60 60 61 61 59 57 55 52 49 45 47 48 49 49
39 34 53 60 61 77 75 78 74 65 62 72 72 70 66 64 58 63 62 58 59 58 57 52 51 50 46 46 47 48 51 49
49 43 61 69 69 79 84 80 77 66 67 71 68 64 64 64 62 62 59 57 57 57 53 53 51 50 49 50 50 51 53 52
49 49 61 71 77 74 77 77 75 67 73 66 62 59 64 60 58 59 59 58 54 52 51 49 49 50 53 54 54 52 53 56
53 55 52 68 77 81 78 78 70 65 76 59 54 57 56 55 56 60 58 57 54 53 53 52 55 52 49 50 51 49 54 58
52 53 71 76 72 78 78 71 67 71 72 52 52 57 54 57 58 57 56 57 59 47 42 42 45 46 46 45 46 46 49 55
62 70 72 76 71 66 63 72 71 69 51 54 53 53 52 51 53 45 41 38 38 39 40 40 39 41 42 40 41 42 46 53
62 63 68 73 64 66 69 75 59 51 51 54 55 49 44 39 38 38 40 38 37 39 38 36 39 40 40 42 44 46 50 61
62 60 60 67 67 64 54 51 51 51 53 56 53 44 38 39 42 45 42 37 39 36 38 40 40 41 44 46 52 61 61 63
53 52 52 52 53 55 50 48 49 51 55 52 42 38 40 41 42 39 39 40 40 39 41 41 41 42 46 56 56 56 60 63
49 46 47 47 48 49 50 46 50 54 50 42 42 44 46 40 40 40 41 47 41 42 46 43 42 46 53 51 53 55 65 64
45 42 46 48 46 47 46 46 50 50 43 44 48 48 42 42 40 40 44 39 41 46 45 44 45 50 51 51 54 60 63 64
43 43 45 50 50 50 48 49 46 43 42 43 47 45 41 42 42 50 40 39 43 45 45 46 49 53 55 54 57 59 65 65
42 41 43 45 50 55 51 49 43 41 45 45 43 43 43 46 47 53 42 44 46 48 47 48 50 54 55 52 57 63 66 59
42 44 56 50 53 55 52 50 42 42 42 44 43 45 44 46 48 50 44 50 49 48 45 48 49 55 56 56 60 63 58 56
40 58 60 56 57 52 50 46 40 40 42 42 42 48 60 44 49 45 46 45 44 42 46 49 50 56 57 56 58 57 54 53
34 36 49 49 50 50 47 44 43 42 44 42 43 42 47 52 52 42 42 44 46 44 45 50 52 57 60 63 66 66 58 55
34 35 38 45 49 47 46 44 45 42 40 45 50 59 46 44 43 43 45 47 45 49 52 52 52 56 65 67 73 71 59 58

GFSFLT1_925_rhum_042.txt.gz
RH
62 60 67 67 62 57 59 68 72 72 71 73 69 57 58 60 66 74 74 70 62 57 57 55 54 54 52 48 47 49 49 50
53 55 60 63 55 58 62 75 75 73 76 71 65 62 63 64 68 73 69 58 58 58 57 56 53 50 49 46 46 47 49 51
48 51 58 63 65 65 65 72 74 71 68 63 59 64 70 64 64 60 58 60 61 63 57 56 54 51 48 46 48 50 52 51
48 55 61 63 78 74 65 71 75 73 68 61 65 70 67 69 63 65 64 60 60 59 57 54 52 49 48 51 52 54 55 56
47 58 63 68 81 78 73 73 76 70 60 60 72 70 73 69 64 65 61 60 58 57 52 51 50 51 54 56 57 55 56 62
52 65 62 69 79 79 74 79 77 72 63 76 76 68 63 61 64 62 59 58 56 53 52 52 55 55 51 48 47 48 51 58
49 66 73 79 87 82 73 79 80 78 72 78 74 63 59 63 65 62 60 58 57 56 55 52 48 45 42 42 42 41 42 46
74 88 84 94 89 89 90 86 85 78 74 75 69 57 58 59 61 61 60 62 52 44 42 41 40 39 39 40 40 44 47 51
72 80 87 87 92 96 92 84 79 75 74 76 64 60 60 58 61 60 60 45 41 41 45 41 42 41 40 41 44 50 59 62
71 74 80 86 90 89 85 79 75 72 64 61 60 59 57 58 48 43 40 43 46 50 41 44 47 41 42 44 51 58 58 55
76 77 81 80 72 71 74 71 70 66 62 54 52 46 43 46 49 45 51 47 46 49 54 54 49 43 43 51 53 52 52 55
68 70 69 67 65 65 64 66 68 58 57 59 52 44 45 46 44 42 42 48 56 61 63 49 44 43 47 52 52 52 54 61
59 63 66 65 61 56 51 51 53 55 55 50 45 45 46 44 42 41 52 56 56 49 49 45 44 48 49 53 53 56 59 62
55 57 60 61 62 58 55 53 56 58 50 46 47 48 43 43 44 53 53 52 46 46 45 46 50 49 51 53 55 56 59 65
51 49 53 55 58 58 63 56 56 56 49 48 48 44 42 45 48 49 50 51 46 46 50 47 46 49 51 56 56 56 61 65
50 54 55 55 57 60 60 55 56 52 51 49 49 47 48 51 52 52 50 48 48 49 46 43 43 50 52 56 56 58 60 63
51 53 61 63 63 63 65 57 56 56 56 55 52 49 49 49 49 50 51 51 48 45 47 44 46 49 50 55 58 60 63 60
47 60 64 66 64 64 70 63 58 54 50 52 51 48 51 54 60 66 63 58 51 50 46 48 50 51 52 56 59 61 61 69
61 64 66 66 65 64 62 59 53 52 53 52 49 51 58 70 78 66 67 63 48 55 51 50 54 52 54 54 64 67 69 67